Location: ?????????
(38.5999°N, 22.7695°E)
Time: 10:23:46
(UTC+00:00)

Cosmos 2322 Rocket - Pass Details

Date: 23 May 2024
Orbit: 831 x 850 km, 71.0° (Epoch: 23 June)

Event Time Altitude Azimuth Distance (km) Brightness Sun altitude
Rises 00:55:10 0° 338° (NNW) 3,399 5.8 -21.2°
Reaches altitude 10° 00:57:36 10° 339° (NNW) 2,464 5.0 -20.9°
Maximum altitude 01:03:17 84° 67° (ENE) 853 2.2 -20.2°
Drops below altitude 10° 01:08:57 10° 157° (SSE) 2,461 4.4 -19.5°
Enters shadow 01:09:54 - 157° (SSE) 2,827 4.7 -19.4°
